TimeCDT,TemperatureF,Dew PointF,Humidity,Sea Level PressureIn,VisibilityMPH,Wind Direction,Wind SpeedMPH,Gust SpeedMPH,PrecipitationIn,Events,Conditions,WindDirDegrees,DateUTC
12:49 AM,80.6,64.4,58,29.98,7.0,SE,17.3,-,N/A,,Clear,130,2013-05-10 05:49:00
12:50 AM,80,69,61,29.99,3,SE,11.2,,,,Scattered Clouds,130,2013-05-10 05:50:00
1:46 AM,78.8,66.2,65,29.97,7.0,ESE,17.3,-,N/A,,Clear,120,2013-05-10 06:46:00
2:46 AM,77.0,68.0,74,29.94,7.0,East,13.8,-,N/A,,Clear,100,2013-05-10 07:46:00
3:47 AM,75.2,68.0,78,29.96,7.0,SE,13.8,-,N/A,,Clear,130,2013-05-10 08:47:00
3:50 AM,76,71,80,29.94,3,ESE,8.9,,,,Scattered Clouds,120,2013-05-10 08:50:00
4:46 AM,75.2,68.0,78,29.92,7.0,ESE,15.0,-,N/A,,Clear,120,2013-05-10 09:46:00
5:46 AM,73.4,68.0,83,29.92,7.0,ESE,11.5,-,N/A,,Scattered Clouds,120,2013-05-10 10:46:00
6:43 AM,73.4,69.8,88,29.93,6.0,ESE,16.1,-,N/A,,Mostly Cloudy,120,2013-05-10 11:43:00
6:50 AM,75,72,88,29.95,6,ESE,6.7,,,,Clear,110,2013-05-10 11:50:00
7:46 AM,77.0,71.6,83,29.95,6.0,SE,13.8,-,N/A,,Partly Cloudy,130,2013-05-10 12:46:00
8:12 AM,78.8,71.6,78,29.95,6.0,SE,17.3,28.8,N/A,,Mostly Cloudy,130,2013-05-10 13:12:00
8:43 AM,82.4,71.6,70,29.95,6.0,SE,20.7,-,N/A,,Mostly Cloudy,130,2013-05-10 13:43:00
9:10 AM,84.2,69.8,62,29.94,7.0,SE,17.3,28.8,N/A,,Mostly Cloudy,130,2013-05-10 14:10:00
9:45 AM,86.0,68.0,55,29.93,7.0,SE,20.7,-,N/A,,Partly Cloudy,130,2013-05-10 14:45:00
9:50 AM,88,72,51,30.01,6,ESE,11.2,,,,Scattered Clouds,110,2013-05-10 14:50:00
10:49 AM,91.4,64.4,41,29.94,7.0,SSE,18.4,-,N/A,,Scattered Clouds,150,2013-05-10 15:49:00
11:45 AM,95.0,60.8,32,29.92,7.0,SSE,18.4,-,N/A,,Mostly Cloudy,150,2013-05-10 16:45:00
12:43 PM,96.8,60.8,30,29.88,7.0,SSE,16.1,-,N/A,,Mostly Cloudy,160,2013-05-10 17:43:00
12:50 PM,101,69,26,29.90,6,SE,11.2,,,,Clear,140,2013-05-10 17:50:00
1:42 PM,100.4,57.2,24,29.85,7.0,SE,15.0,-,N/A,,Mostly Cloudy,140,2013-05-10 18:42:00
2:46 PM,102.2,55.4,21,29.82,7.0,ESE,20.7,-,N/A,,Partly Cloudy,110,2013-05-10 19:46:00
3:47 PM,102.2,53.6,20,29.79,7.0,SSE,13.8,-,N/A,,Partly Cloudy,150,2013-05-10 20:47:00
3:50 PM,105,62,16,29.81,6,SE,6.7,,,,Scattered Clouds,140,2013-05-10 20:50:00
4:46 PM,102.2,53.6,20,29.78,7.0,SE,17.3,-,N/A,,Scattered Clouds,140,2013-05-10 21:46:00
5:45 PM,102.2,53.6,20,29.78,7.0,ESE,11.5,-,N/A,,Scattered Clouds,120,2013-05-10 22:45:00
6:46 PM,98.6,55.4,24,29.81,7.0,ESE,17.3,-,N/A,,Scattered Clouds,120,2013-05-10 23:46:00
6:50 PM,98,69,29,29.82,6,ESE,11.2,,,,Scattered Clouds,120,2013-05-10 23:50:00
7:41 PM,96.8,59.0,28,29.81,7.0,SE,17.3,-,N/A,,Scattered Clouds,140,2013-05-11 00:41:00
8:40 PM,93.2,60.8,34,29.84,7.0,SE,20.7,32.2,N/A,,Clear,130,2013-05-11 01:40:00
9:47 PM,87.8,64.4,46,29.86,7.0,ESE,20.7,-,N/A,,Clear,120,2013-05-11 02:47:00
9:50 PM,90,65,34,29.89,3,ESE,13.4,,,,Scattered Clouds,120,2013-05-11 02:50:00
10:41 PM,86.0,66.2,51,29.91,7.0,SE,19.6,-,N/A,,Clear,130,2013-05-11 03:41:00
11:46 PM,84.2,68.0,58,29.93,7.0,SE,17.3,-,N/A,,Clear,130,2013-05-11 04:46:00